Location: Praha
(50.0830°N, 14.4670°E)
Time: 11:55:16
(UTC+02:00)

ISS - Pass Details

Date: 21 September 2022
Orbit: 415 x 420 km, 51.6° (Epoch: 02 October)

Event Time Altitude Azimuth Distance (km) Brightness Sun altitude
Rises 20:21:56 0° 257° (WSW) 2,380 1.2 -13.3°
Reaches altitude 10° 20:24:02 10° 259° (W) 1,515 0.1 -13.7°
Maximum altitude 20:27:27 81° 345° (NNW) 435 -3.7 -14.2°
Enters shadow 20:29:21 24° 73° (ENE) 918 -2.5 -14.5°
